カタリナ彗星

403P/Catalina (2008)

English version
Home page
Updated on December 11, 2020

---------------------------------------------------------------------

・ プロフィール

符号 403P/2007 VQ11
発見日 2007年11月3日
発見光度 18.8等
発見者 Catalina Sky Survey

・ 軌道要素

Epoch 2008 Feb. 24.0 TT = JDT 2454520.5                                         
T 2008 Feb. 13.77910 TT                                 Rudenko                 
q   2.6932905            (2000.0)            P               Q                  
n   0.07832162     Peri.  277.72169     +0.13677935     -0.98886425             
a   5.4102202      Node   164.05374     +0.97203491     +0.12257264             
e   0.5021847      Incl.   12.32457     +0.19089144     +0.08440047             
P  12.6                                                                         
From 102 observations 2007 Nov. 3-2020 Oct. 17, mean residual 0".9.             

・ 光度変化

        m1 = 12.5 + 5 logΔ + 10.0 log r

---------------------------------------------------------------------

軌道要素はM.P.E.C. 2020-U169に掲載されたものです。
光度グラフはComet for Windowsで作成したものです。

---------------------------------------------------------------------

Copyright(C) Seiichi Yoshida (comet@aerith.net). All rights reserved.